Weather in Larino

Russia / Chelyabinsk Oblast     56°17′27″N   61°17′44″E
temp.,
°C
wind,
m/s
gust,
m/s
humid.,
%
clouds,
%
prec.,
mm/h
press.,
hPa
HPBL,
m
13 may, thu
thu1323:00+15ese115723 0.0 102711
02:00+14sw226114 0.0 102710
05:00+13wsw226226 0.0 102713
08:00+19nw344783 0.0 1027270
11:00+24nnw353395 0.0 10261495
14:00+27nnw45246 0.0 10252183
17:00+27nnw452419 0.0 10242453
20:00+22nne224151 0.0 102411
14 may, fri
fri1423:00+18wnw11495 0.0 102611
02:00+17w22545 0.0 102612
05:00+15w11585 0.0 102611
08:00+21sw23435 0.0 1026248
11:00+27sw34305 0.0 10261717
14:00+29wsw35247 0.0 10243132
17:00+29w45225 0.0 10233351
20:00+24wnw36374 0.0 1023102
15 may, sat
sat1523:00+19wnw35485 0.0 102384
02:00+17w37510 0.0 1023105
05:00+16w36605 0.0 1024113
08:00+22w484573 0.0 1023344
11:00+28w472825 0.0 10221598
14:00+30w692444 0.0 10212624
17:00+29w682658 0.0 10202589
20:00+25w49376 0.0 1020274
16 may, sun
sun1623:00+20w3124924 0.0 1020270
02:00+17wnw22595 0.0 102021
05:00+16wsw226363 0.0 102128
08:00+22w364547 0.0 1021304
11:00+28wsw56275 0.0 10191481
14:00+31wsw68215 0.0 10183124
17:00+30wsw68214 0.0 10173120
20:00+25wsw37360 0.0 1017143
17 may, mon
mon1723:00+20w37481 0.0 1017122
02:00+18wsw38560 0.0 1017123
05:00+17wsw38576 0.0 1017120
08:00+23wsw494692 0.0 1017367
11:00+28wsw692798 0.0 10152454
14:00+29w6823100 0.0 10143146
17:00+28w6102581 0.0 10133335
20:00+25wnw493814 0.0 1012394